Location: Miles
(41.4492°N, 81.6087°W)
Time: 14:32:56
(UTC+00:00)

Vanguard 1 Rocket - Pass Details

Date: 15 September 2024
Orbit: 650 x 4218 km, 34.3° (Epoch: 07 October)

Event Time Altitude Azimuth Distance (km) Brightness Sun altitude
Rises 17:39:39 0° 281° (WNW) 8,447 12.3 51.0°
Reaches altitude 10° 17:50:28 10° 262° (W) 7,339 12.3 50.6°
Maximum altitude 18:00:27 14° 238° (WSW) 6,580 12.4 50.2°
Drops below altitude 10° 18:09:19 10° 213° (SSW) 6,326 12.6 49.7°
Sets 18:17:20 0° 191° (S) 6,587 12.4 49.2°
